,,PA_Meas_PMT16A,,PR_Meas_QMR101_102,,RH_Meas_QMH101,,SR_Meas_QMS101,,TA_Meas_QMH101,,GenWind,,GenWind,
time,status,PA,status,PR,status,RH,status,SR,status,TA,status,DirAvg,status,SpdAvg,
2013-04-11, 00:00:04,VALID,916.795,VALID,0,VALID,95.0792,VALID,0,VALID,20.5609,VALID,110,VALID,0,
2013-04-11, 00:01:04,VALID,916.761,VALID,0,VALID,95.0792,VALID,0,VALID,20.5219,VALID,110,VALID,0,
2013-04-11, 00:02:04,VALID,916.755,VALID,0,VALID,95.2241,VALID,0,VALID,20.5414,VALID,110,VALID,0,
2013-04-11, 00:03:04,VALID,916.719,VALID,0,VALID,95.2851,VALID,0,VALID,20.5219,VALID,110,VALID,0,
2013-04-11, 00:04:04,VALID,916.712,VALID,0,VALID,95.3003,VALID,0,VALID,20.5024,VALID,110,VALID,0,
2013-04-11, 00:05:04,VALID,916.69,VALID,0,VALID,95.3537,VALID,0,VALID,20.4813,VALID,110,VALID,0,
2013-04-11, 00:06:04,VALID,916.699,VALID,0,VALID,95.4528,VALID,0,VALID,20.5024,VALID,110,VALID,0,
2013-04-11, 00:07:04,VALID,916.697,VALID,0,VALID,95.5062,VALID,0,VALID,20.5219,VALID,110,VALID,0,
2013-04-11, 00:08:04,VALID,916.671,VALID,0,VALID,95.3156,VALID,0,VALID,20.4829,VALID,110,VALID,0,
2013-04-11, 00:09:04,VALID,916.69,VALID,0,VALID,95.2012,VALID,0,VALID,20.4244,VALID,109,VALID,0,
2013-04-11, 00:10:04,VALID,916.702,VALID,0,VALID,95.2927,VALID,0,VALID,20.3838,VALID,108,VALID,0,
2013-04-11, 00:11:04,VALID,916.675,VALID,0,VALID,95.4223,VALID,0,VALID,20.4049,VALID,106,VALID,0,
2013-04-11, 00:12:04,VALID,916.718,VALID,0,VALID,95.4833,VALID,0,VALID,20.3838,VALID,106,VALID,0,
2013-04-11, 00:13:04,VALID,916.705,VALID,0,VALID,95.6129,VALID,0,VALID,20.4049,VALID,106,VALID,0,
2013-04-11, 00:14:04,VALID,916.759,VALID,0,VALID,95.5748,VALID,0,VALID,20.4049,VALID,106,VALID,0,
2013-04-11, 00:15:04,VALID,916.771,VALID,0,VALID,95.5214,VALID,0,VALID,20.3854,VALID,106,VALID,0,
2013-04-11, 00:16:04,VALID,916.744,VALID,0,VALID,95.6357,VALID,0,VALID,20.3854,VALID,106,VALID,0,
2013-04-11, 00:17:04,VALID,916.742,VALID,0,VALID,95.6967,VALID,0,VALID,20.4049,VALID,106,VALID,0,
2013-04-11, 00:18:04,VALID,916.732,VALID,0,VALID,95.6586,VALID,0,VALID,20.3643,VALID,106,VALID,0,
2013-04-11, 00:19:04,VALID,916.693,VALID,0,VALID,95.5214,VALID,0,VALID,20.3464,VALID,106,VALID,0,
2013-04-11, 00:20:04,VALID,916.67,VALID,0,VALID,95.773,VALID,0,VALID,20.3659,VALID,106,VALID,0,
2013-04-11, 00:21:04,VALID,916.649,VALID,0,VALID,95.7577,VALID,0,VALID,20.3464,VALID,106,VALID,0,
2013-04-11, 00:22:04,VALID,916.641,VALID,0,VALID,95.7806,VALID,0,VALID,20.3659,VALID,106,VALID,0,
2013-04-11, 00:23:04,VALID,916.62,VALID,0,VALID,95.7958,VALID,0,VALID,20.3659,VALID,106,VALID,0,
2013-04-11, 00:24:04,VALID,916.633,VALID,0,VALID,95.8645,VALID,0,VALID,20.3854,VALID,106,VALID,0,
2013-04-11, 00:25:04,VALID,916.637,VALID,0,VALID,95.8416,VALID,0,VALID,20.3659,VALID,106,VALID,0,
2013-04-11, 00:26:04,VALID,916.671,VALID,0,VALID,95.8416,VALID,0,VALID,20.3659,VALID,106,VALID,0,
2013-04-11, 00:27:04,VALID,916.649,VALID,0,VALID,95.8797,VALID,0,VALID,20.3854,VALID,106,VALID,0,
2013-04-11, 00:28:04,VALID,916.632,VALID,0,VALID,95.9254,VALID,0,VALID,20.4049,VALID,106,VALID,0,
2013-04-11, 00:29:04,VALID,916.618,VALID,0,VALID,95.9636,VALID,0,VALID,20.4244,VALID,106,VALID,0,
2013-04-11, 00:30:04,VALID,916.578,VALID,0,VALID,95.9559,VALID,0,VALID,20.4228,VALID,106,VALID,0,
2013-04-11, 00:31:04,VALID,916.533,VALID,0,VALID,95.9102,VALID,0,VALID,20.4439,VALID,106,VALID,0,
2013-04-11, 00:32:04,VALID,916.529,VALID,0,VALID,95.8873,VALID,0,VALID,20.4439,VALID,106,VALID,0,
2013-04-11, 00:33:04,VALID,916.473,VALID,0,VALID,95.8416,VALID,0,VALID,20.4423,VALID,106,VALID,0,
2013-04-11, 00:34:04,VALID,916.498,VALID,0,VALID,95.8111,VALID,0,VALID,20.4439,VALID,106,VALID,0,
2013-04-11, 00:35:04,VALID,916.488,VALID,0,VALID,95.6967,VALID,0,VALID,20.4439,VALID,106,VALID,0,
2013-04-11, 00:36:04,VALID,916.46,VALID,0,VALID,95.6205,VALID,0,VALID,20.4244,VALID,106,VALID,0,
2013-04-11, 00:37:04,VALID,916.455,VALID,0,VALID,95.4909,VALID,0,VALID,20.4049,VALID,106,VALID,0,
2013-04-11, 00:38:04,VALID,916.475,VALID,0,VALID,95.4071,VALID,0,VALID,20.3854,VALID,107,VALID,0,
2013-04-11, 00:39:04,VALID,916.455,VALID,0,VALID,95.3384,VALID,0,VALID,20.3448,VALID,107,VALID,0,
2013-04-11, 00:40:04,VALID,916.45,VALID,0,VALID,95.3613,VALID,0,VALID,20.3659,VALID,107,VALID,0,
2013-04-11, 00:41:04,VALID,916.445,VALID,0,VALID,95.4604,VALID,0,VALID,20.3643,VALID,133,VALID,0,
2013-04-11, 00:42:04,VALID,916.462,VALID,0,VALID,95.468,VALID,0,VALID,20.4049,VALID,133,VALID,0,
2013-04-11, 00:43:04,VALID,916.427,VALID,0,VALID,95.4071,VALID,0,VALID,20.3854,VALID,133,VALID,0,
2013-04-11, 00:44:04,VALID,916.422,VALID,0,VALID,95.3766,VALID,0,VALID,20.3869,VALID,133,VALID,0,
2013-04-11, 00:45:04,VALID,916.425,VALID,0,VALID,95.3918,VALID,0,VALID,20.3464,VALID,133,VALID,0,
2013-04-11, 00:46:04,VALID,916.414,VALID,0,VALID,95.4071,VALID,0,VALID,20.3464,VALID,133,VALID,0,
2013-04-11, 00:47:04,VALID,916.419,VALID,0,VALID,95.3613,VALID,0,VALID,20.3464,VALID,133,VALID,0,
2013-04-11, 00:48:04,VALID,916.391,VALID,0,VALID,95.3232,VALID,0,VALID,20.3269,VALID,133,VALID,0,
2013-04-11, 00:49:04,VALID,916.407,VALID,0,VALID,95.2927,VALID,0,VALID,20.3074,VALID,133,VALID,0,
2013-04-11, 00:50:04,VALID,916.384,VALID,0,VALID,95.2622,VALID,0,VALID,20.3074,VALID,133,VALID,0,
2013-04-11, 00:51:04,VALID,916.38,VALID,0,VALID,95.186,VALID,0,VALID,20.2879,VALID,133,VALID,0,
2013-04-11, 00:52:04,VALID,916.385,VALID,0,VALID,95.2241,VALID,0,VALID,20.2879,VALID,133,VALID,0,
2013-04-11, 00:53:04,VALID,916.392,VALID,0,VALID,95.2622,VALID,0,VALID,20.2863,VALID,133,VALID,0,
2013-04-11, 00:54:04,VALID,916.372,VALID,0,VALID,95.2851,VALID,0,VALID,20.3074,VALID,133,VALID,0,
2013-04-11, 00:55:04,VALID,916.328,VALID,0,VALID,95.2165,VALID,0,VALID,20.3074,VALID,133,VALID,0,
2013-04-11, 00:56:04,VALID,916.386,VALID,0,VALID,95.3232,VALID,0,VALID,20.2879,VALID,133,VALID,0,
2013-04-11, 00:57:04,VALID,916.422,VALID,0,VALID,95.3613,VALID,0,VALID,20.3074,VALID,133,VALID,0,
2013-04-11, 00:58:04,VALID,916.433,VALID,0,VALID,95.3689,VALID,0,VALID,20.3074,VALID,133,VALID,0,
2013-04-11, 00:59:04,VALID,916.438,VALID,0,VALID,95.3994,VALID,0,VALID,20.2879,VALID,133,VALID,0,
2013-04-11, 01:00:04,VALID,916.457,VALID,0,VALID,95.4223,VALID,0,VALID,20.3284,VALID,133,VALID,0,
2013-04-11, 01:01:04,VALID,916.483,VALID,0,VALID,95.4375,VALID,0,VALID,20.3074,VALID,133,VALID,0,
2013-04-11, 01:02:04,VALID,916.475,VALID,0,VALID,95.3842,VALID,0,VALID,20.3074,VALID,133,VALID,0,
2013-04-11, 01:03:04,VALID,916.484,VALID,0,VALID,95.3384,VALID,0,VALID,20.3089,VALID,133,VALID,0,
2013-04-11, 01:04:04,VALID,916.483,VALID,0,VALID,95.3461,VALID,0,VALID,20.2879,VALID,133,VALID,0,
2013-04-11, 01:05:04,VALID,916.493,VALID,0,VALID,95.3994,VALID,0,VALID,20.3284,VALID,133,VALID,0,
2013-04-11, 01:06:04,VALID,916.487,VALID,0,VALID,95.4528,VALID,0,VALID,20.3074,VALID,136,VALID,0,
2013-04-11, 01:07:04,VALID,916.459,VALID,0,VALID,95.4909,VALID,0,VALID,20.3479,VALID,155,VALID,0,
2013-04-11, 01:08:04,VALID,916.435,VALID,0,VALID,95.4909,VALID,0,VALID,20.3269,VALID,155,VALID,0,
2013-04-11, 01:09:05,VALID,916.463,VALID,0,VALID,95.4452,VALID,0,VALID,20.3284,VALID,155,VALID,0,
2013-04-11, 01:10:05,VALID,916.427,VALID,0,VALID,95.4223,VALID,0,VALID,20.2879,VALID,155,VALID,0,
2013-04-11, 01:11:05,VALID,916.435,VALID,0,VALID,95.3994,VALID,0,VALID,20.2879,VALID,155,VALID,0,
2013-04-11, 01:12:05,VALID,916.453,VALID,0,VALID,95.3308,VALID,0,VALID,20.2684,VALID,155,VALID,0,
2013-04-11, 01:13:05,VALID,916.435,VALID,0,VALID,95.3461,VALID,0,VALID,20.2278,VALID,155,VALID,0,
2013-04-11, 01:14:05,VALID,916.391,VALID,0,VALID,95.3079,VALID,0,VALID,20.2489,VALID,155,VALID,0,
2013-04-11, 01:15:05,VALID,916.372,VALID,0,VALID,95.3308,VALID,0,VALID,20.2504,VALID,155,VALID,0,
2013-04-11, 01:16:05,VALID,916.391,VALID,0,VALID,95.3384,VALID,0,VALID,20.2699,VALID,155,VALID,0,
2013-04-11, 01:17:05,VALID,916.356,VALID,0,VALID,95.3842,VALID,0,VALID,20.2684,VALID,155,VALID,0,
2013-04-11, 01:18:05,VALID,916.328,VALID,0,VALID,95.3384,VALID,0,VALID,20.2894,VALID,155,VALID,0,
2013-04-11, 01:19:05,VALID,916.305,VALID,0,VALID,95.3384,VALID,0,VALID,20.2684,VALID,155,VALID,0,
2013-04-11, 01:20:05,VALID,916.288,VALID,0,VALID,95.3384,VALID,0,VALID,20.2489,VALID,155,VALID,0,
2013-04-11, 01:21:05,VALID,916.288,VALID,0,VALID,95.3537,VALID,0,VALID,20.2894,VALID,155,VALID,0,
2013-04-11, 01:22:05,VALID,916.312,VALID,0,VALID,95.3461,VALID,0,VALID,20.2894,VALID,155,VALID,0,
2013-04-11, 01:23:05,VALID,916.323,VALID,0,VALID,95.3613,VALID,0,VALID,20.2879,VALID,155,VALID,0,
2013-04-11, 01:24:05,VALID,916.324,VALID,0,VALID,95.3461,VALID,0,VALID,20.2879,VALID,155,VALID,0,
2013-04-11, 01:25:05,VALID,916.308,VALID,0,VALID,95.3308,VALID,0,VALID,20.2879,VALID,155,VALID,0,
2013-04-11, 01:26:05,VALID,916.322,VALID,0,VALID,95.2927,VALID,0,VALID,20.2879,VALID,155,VALID,0,
2013-04-11, 01:27:05,VALID,916.287,VALID,0,VALID,95.1555,VALID,0,VALID,20.3074,VALID,155,VALID,0,
2013-04-11, 01:28:05,VALID,916.285,VALID,0,VALID,95.125,VALID,0,VALID,20.2879,VALID,155,VALID,0,
2013-04-11, 01:29:05,VALID,916.299,VALID,0,VALID,95.1479,VALID,0,VALID,20.2879,VALID,155,VALID,0,
2013-04-11, 01:30:05,VALID,916.349,VALID,0,VALID,95.1707,VALID,0.107441,VALID,20.3074,VALID,155,VALID,0,
2013-04-11, 01:31:05,VALID,916.333,VALID,0,VALID,95.1402,VALID,0,VALID,20.3074,VALID,155,VALID,0,
2013-04-11, 01:32:05,VALID,916.338,VALID,0,VALID,95.0869,VALID,0,VALID,20.3284,VALID,155,VALID,0,
2013-04-11, 01:33:05,VALID,916.32,VALID,0,VALID,95.003,VALID,0,VALID,20.2668,VALID,155,VALID,0,
2013-04-11, 01:34:05,VALID,916.27,VALID,0,VALID,95.003,VALID,0,VALID,20.2489,VALID,150,VALID,0,
2013-04-11, 01:35:05,VALID,916.299,VALID,0,VALID,95.0259,VALID,0,VALID,20.2083,VALID,139,VALID,0,
2013-04-11, 01:36:05,VALID,916.277,VALID,0,VALID,95.0716,VALID,0,VALID,20.1693,VALID,139,VALID,0,
2013-04-11, 01:37:05,VALID,916.244,VALID,0,VALID,95.125,VALID,0,VALID,20.1303,VALID,139,VALID,0,
2013-04-11, 01:38:05,VALID,916.23,VALID,0,VALID,95.186,VALID,0.107441,VALID,20.1303,VALID,139,VALID,0,
2013-04-11, 01:39:05,VALID,916.187,VALID,0,VALID,95.3003,VALID,0,VALID,20.1318,VALID,139,VALID,0,
2013-04-11, 01:40:05,VALID,916.196,VALID,0,VALID,95.3079,VALID,0,VALID,20.1123,VALID,139,VALID,0,
2013-04-11, 01:41:05,VALID,916.167,VALID,0,VALID,95.3308,VALID,0,VALID,20.1123,VALID,139,VALID,0,
2013-04-11, 01:42:05,VALID,916.149,VALID,0,VALID,95.3994,VALID,0,VALID,20.0718,VALID,139,VALID,0,
2013-04-11, 01:43:05,VALID,916.142,VALID,0,VALID,95.4452,VALID,0,VALID,20.0928,VALID,139,VALID,0,
2013-04-11, 01:44:05,VALID,916.112,VALID,0,VALID,95.468,VALID,0,VALID,20.0733,VALID,139,VALID,0,
2013-04-11, 01:45:05,VALID,916.137,VALID,0,VALID,95.4452,VALID,0,VALID,20.0733,VALID,139,VALID,0,
2013-04-11, 01:46:05,VALID,916.173,VALID,0,VALID,95.4452,VALID,0.107441,VALID,20.0343,VALID,139,VALID,0,
2013-04-11, 01:47:05,VALID,916.15,VALID,0,VALID,95.3613,VALID,0,VALID,19.9953,VALID,139,VALID,0,
2013-04-11, 01:48:05,VALID,916.154,VALID,0,VALID,95.3918,VALID,0,VALID,19.9563,VALID,114,VALID,0,
2013-04-11, 01:49:05,VALID,916.108,VALID,0,VALID,95.4833,VALID,0,VALID,19.9173,VALID,105,VALID,0,
2013-04-11, 01:50:05,VALID,916.117,VALID,0,VALID,95.5062,VALID,0,VALID,19.8783,VALID,105,VALID,0,
2013-04-11, 01:51:05,VALID,916.144,VALID,0,VALID,95.5824,VALID,0,VALID,19.8588,VALID,106,VALID,0,
2013-04-11, 01:52:05,VALID,916.114,VALID,0,VALID,95.712,VALID,0,VALID,19.8588,VALID,107,VALID,0,
2013-04-11, 01:53:05,VALID,916.137,VALID,0,VALID,95.7958,VALID,0,VALID,19.8393,VALID,107,VALID,0,
2013-04-11, 01:54:05,VALID,916.119,VALID,0,VALID,95.9026,VALID,0,VALID,19.8393,VALID,107,VALID,0,
2013-04-11, 01:55:05,VALID,916.088,VALID,0,VALID,95.9712,VALID,0,VALID,19.8198,VALID,110,VALID,0,
2013-04-11, 01:56:05,VALID,916.119,VALID,0,VALID,96.0093,VALID,0,VALID,19.8003,VALID,110,VALID,0,
2013-04-11, 01:57:05,VALID,916.086,VALID,0,VALID,96.055,VALID,0,VALID,19.7613,VALID,110,VALID,0,
2013-04-11, 01:58:05,VALID,916.072,VALID,0,VALID,96.1084,VALID,0,VALID,19.7418,VALID,110,VALID,0,
2013-04-11, 01:59:05,VALID,916.053,VALID,0,VALID,96.1236,VALID,0,VALID,19.7223,VALID,110,VALID,0,
2013-04-11, 02:00:05,VALID,916.04,VALID,0,VALID,96.1999,VALID,0,VALID,19.7028,VALID,109,VALID,0,
2013-04-11, 02:01:05,VALID,916.027,VALID,0,VALID,96.2456,VALID,0,VALID,19.7028,VALID,112,VALID,0,
2013-04-11, 02:02:05,VALID,915.996,VALID,0,VALID,96.2685,VALID,0,VALID,19.6833,VALID,112,VALID,0,
2013-04-11, 02:03:05,VALID,915.999,VALID,0,VALID,96.2914,VALID,0,VALID,19.6653,VALID,108,VALID,0,
2013-04-11, 02:04:05,VALID,915.987,VALID,0,VALID,96.3295,VALID,0,VALID,19.6443,VALID,110,VALID,0,
2013-04-11, 02:05:05,VALID,916.032,VALID,0,VALID,96.3524,VALID,0,VALID,19.6038,VALID,115,VALID,0,
2013-04-11, 02:06:05,VALID,916.031,VALID,0,VALID,96.3829,VALID,0,VALID,19.6248,VALID,118,VALID,0,
2013-04-11, 02:07:05,VALID,916.05,VALID,0,VALID,96.3829,VALID,0.107441,VALID,19.6248,VALID,127,VALID,0,
2013-04-11, 02:08:05,VALID,916.054,VALID,0,VALID,96.3829,VALID,0,VALID,19.6458,VALID,127,VALID,0,
2013-04-11, 02:09:05,VALID,916.054,VALID,0,VALID,96.3676,VALID,0,VALID,19.6248,VALID,129,VALID,0,
2013-04-11, 02:10:05,VALID,916.03,VALID,0,VALID,96.3447,VALID,0,VALID,19.6248,VALID,132,VALID,0,
2013-04-11, 02:11:05,VALID,915.981,VALID,0,VALID,96.3295,VALID,0,VALID,19.6458,VALID,131,VALID,0,
2013-04-11, 02:12:05,VALID,915.996,VALID,0,VALID,96.2914,VALID,0,VALID,19.6248,VALID,130,VALID,0,
2013-04-11, 02:13:05,VALID,916.004,VALID,0,VALID,96.2456,VALID,0,VALID,19.6038,VALID,120,VALID,0,
2013-04-11, 02:14:05,VALID,915.98,VALID,0,VALID,96.1541,VALID,0,VALID,19.6248,VALID,120,VALID,0,
2013-04-11, 02:15:05,VALID,915.955,VALID,0,VALID,96.116,VALID,0,VALID,19.6248,VALID,120,VALID,0,
2013-04-11, 02:16:05,VALID,915.923,VALID,0,VALID,96.0245,VALID,0,VALID,19.6053,VALID,123,VALID,0,
2013-04-11, 02:17:05,VALID,915.915,VALID,0,VALID,95.8721,VALID,0,VALID,19.6053,VALID,128,VALID,0,
2013-04-11, 02:18:05,VALID,915.908,VALID,0,VALID,95.6967,VALID,0,VALID,19.6263,VALID,128,VALID,0,
2013-04-11, 02:19:05,VALID,915.929,VALID,0,VALID,95.5519,VALID,0,VALID,19.6248,VALID,128,VALID,0,
2013-04-11, 02:20:05,VALID,915.87,VALID,0,VALID,95.4528,VALID,0,VALID,19.6653,VALID,128,VALID,0,
2013-04-11, 02:21:05,VALID,915.869,VALID,0,VALID,95.3156,VALID,0,VALID,19.6233,VALID,128,VALID,0,
2013-04-11, 02:22:05,VALID,915.846,VALID,0,VALID,95.1097,VALID,0,VALID,19.6443,VALID,131,VALID,0,
2013-04-11, 02:23:05,VALID,915.81,VALID,0,VALID,94.942,VALID,0,VALID,19.6638,VALID,135,VALID,0,
2013-04-11, 02:24:05,VALID,915.788,VALID,0,VALID,94.7972,VALID,0,VALID,19.6833,VALID,135,VALID,0,
2013-04-11, 02:25:05,VALID,915.791,VALID,0,VALID,94.7057,VALID,0,VALID,19.7223,VALID,135,VALID,0,
2013-04-11, 02:26:05,VALID,915.782,VALID,0,VALID,94.6295,VALID,0,VALID,19.7028,VALID,135,VALID,0,
2013-04-11, 02:27:05,VALID,915.769,VALID,0,VALID,94.538,VALID,0,VALID,19.7628,VALID,135,VALID,0,
2013-04-11, 02:28:05,VALID,915.767,VALID,0,VALID,94.477,VALID,0,VALID,19.7823,VALID,135,VALID,0,
2013-04-11, 02:29:05,VALID,915.766,VALID,0,VALID,94.3626,VALID,0,VALID,19.7613,VALID,135,VALID,0,
2013-04-11, 02:30:05,VALID,915.759,VALID,0,VALID,94.2559,VALID,0,VALID,19.7808,VALID,135,VALID,0,
2013-04-11, 02:31:05,VALID,915.797,VALID,0,VALID,94.0653,VALID,0,VALID,19.8198,VALID,135,VALID,0,
2013-04-11, 02:32:05,VALID,915.76,VALID,0,VALID,93.7223,VALID,0,VALID,19.8393,VALID,135,VALID,0,
2013-04-11, 02:33:05,VALID,915.76,VALID,0,VALID,93.3182,VALID,0,VALID,19.8783,VALID,135,VALID,0,
2013-04-11, 02:34:05,VALID,915.74,VALID,0,VALID,93.0057,VALID,0,VALID,19.9173,VALID,135,VALID,0,
2013-04-11, 02:35:05,VALID,915.729,VALID,0,VALID,92.7007,VALID,0,VALID,19.8978,VALID,135,VALID,0,
2013-04-11, 02:36:05,VALID,915.736,VALID,0,VALID,92.3958,VALID,0,VALID,19.9383,VALID,135,VALID,0,
2013-04-11, 02:37:05,VALID,915.73,VALID,0,VALID,92.1061,VALID,0,VALID,19.9368,VALID,135,VALID,0,
2013-04-11, 02:38:05,VALID,915.699,VALID,0,VALID,91.9003,VALID,0,VALID,19.9578,VALID,135,VALID,0,
2013-04-11, 02:39:05,VALID,915.715,VALID,0,VALID,91.946,VALID,0,VALID,19.9383,VALID,135,VALID,0,
2013-04-11, 02:40:05,VALID,915.704,VALID,0,VALID,91.9155,VALID,0,VALID,19.9368,VALID,135,VALID,0,
2013-04-11, 02:41:05,VALID,915.7,VALID,0,VALID,91.8393,VALID,0,VALID,19.9578,VALID,135,VALID,0,
2013-04-11, 02:42:05,VALID,915.682,VALID,0,VALID,91.9079,VALID,0,VALID,19.9368,VALID,135,VALID,0,
2013-04-11, 02:43:05,VALID,915.681,VALID,0,VALID,91.9613,VALID,0,VALID,19.9563,VALID,135,VALID,0,
2013-04-11, 02:44:05,VALID,915.646,VALID,0,VALID,92.0527,VALID,0,VALID,19.9368,VALID,135,VALID,0,
2013-04-11, 02:45:05,VALID,915.636,VALID,0,VALID,92.1823,VALID,0,VALID,19.9773,VALID,135,VALID,0,
2013-04-11, 02:46:05,VALID,915.62,VALID,0,VALID,92.2433,VALID,0,VALID,19.9368,VALID,135,VALID,0,
2013-04-11, 02:47:05,VALID,915.605,VALID,0,VALID,92.3501,VALID,0,VALID,19.9578,VALID,135,VALID,0,
2013-04-11, 02:48:05,VALID,915.566,VALID,0,VALID,92.3882,VALID,0,VALID,19.9578,VALID,135,VALID,0,
2013-04-11, 02:49:05,VALID,915.564,VALID,0,VALID,92.3729,VALID,0,VALID,19.9368,VALID,135,VALID,0,
2013-04-11, 02:50:05,VALID,915.552,VALID,0,VALID,92.4492,VALID,0,VALID,19.9368,VALID,135,VALID,0,
2013-04-11, 02:51:05,VALID,915.514,VALID,0,VALID,92.4492,VALID,0,VALID,19.9173,VALID,135,VALID,0,
2013-04-11, 02:52:05,VALID,915.519,VALID,0,VALID,92.5483,VALID,0,VALID,19.8783,VALID,135,VALID,0,
2013-04-11, 02:53:05,VALID,915.557,VALID,0,VALID,92.7693,VALID,0,VALID,19.8798,VALID,135,VALID,0,
2013-04-11, 02:54:05,VALID,915.553,VALID,0,VALID,92.9599,VALID,0,VALID,19.8588,VALID,135,VALID,0,
2013-04-11, 02:55:05,VALID,915.556,VALID,0,VALID,93.1581,VALID,0,VALID,19.8603,VALID,135,VALID,0,
2013-04-11, 02:56:05,VALID,915.543,VALID,0,VALID,93.3106,VALID,0,VALID,19.8408,VALID,135,VALID,0,
2013-04-11, 02:57:05,VALID,915.512,VALID,0,VALID,93.425,VALID,0,VALID,19.8213,VALID,135,VALID,0,
2013-04-11, 02:58:05,VALID,915.5,VALID,0,VALID,93.5927,VALID,0,VALID,19.7823,VALID,135,VALID,0,
2013-04-11, 02:59:05,VALID,915.467,VALID,0,VALID,93.707,VALID,0,VALID,19.7223,VALID,134,VALID,0,
2013-04-11, 03:00:05,VALID,915.453,VALID,0,VALID,93.8976,VALID,0,VALID,19.7238,VALID,134,VALID,0,
2013-04-11, 03:01:05,VALID,915.417,VALID,0,VALID,94.1416,VALID,0,VALID,19.7028,VALID,134,VALID,0,
2013-04-11, 03:02:05,VALID,915.416,VALID,0,VALID,94.3626,VALID,0,VALID,19.6833,VALID,134,VALID,0,
2013-04-11, 03:03:05,VALID,915.434,VALID,0,VALID,94.538,VALID,0,VALID,19.6848,VALID,134,VALID,0,
2013-04-11, 03:04:05,VALID,915.407,VALID,0,VALID,94.7819,VALID,0,VALID,19.6848,VALID,134,VALID,0,
2013-04-11, 03:05:05,VALID,915.409,VALID,0,VALID,94.942,VALID,0,VALID,19.6638,VALID,134,VALID,0,
2013-04-11, 03:06:05,VALID,915.386,VALID,0,VALID,94.9878,VALID,0,VALID,19.6458,VALID,134,VALID,0,
2013-04-11, 03:07:05,VALID,915.346,VALID,0,VALID,94.9954,VALID,0,VALID,19.5858,VALID,134,VALID,0,
2013-04-11, 03:08:05,VALID,915.36,VALID,0,VALID,94.9268,VALID,0,VALID,19.5273,VALID,134,VALID,0,
2013-04-11, 03:09:05,VALID,915.361,VALID,0,VALID,95.0792,VALID,0,VALID,19.5483,VALID,135,VALID,0,
2013-04-11, 03:10:05,VALID,915.372,VALID,0,VALID,95.2546,VALID,0,VALID,19.5678,VALID,134,VALID,0,
2013-04-11, 03:11:05,VALID,915.35,VALID,0,VALID,95.3384,VALID,0,VALID,19.5468,VALID,134,VALID,0,
2013-04-11, 03:12:05,VALID,915.335,VALID,0,VALID,95.4147,VALID,0,VALID,19.5663,VALID,134,VALID,0,
2013-04-11, 03:13:05,VALID,915.344,VALID,0,VALID,95.4223,VALID,0,VALID,19.5258,VALID,134,VALID,0,
2013-04-11, 03:14:05,VALID,915.304,VALID,0,VALID,95.3994,VALID,0,VALID,19.5063,VALID,134,VALID,0,
2013-04-11, 03:15:05,VALID,915.304,VALID,0,VALID,95.5138,VALID,0,VALID,19.5273,VALID,134,VALID,0,
2013-04-11, 03:16:05,VALID,915.261,VALID,0,VALID,95.5062,VALID,0,VALID,19.5288,VALID,134,VALID,0,
2013-04-11, 03:17:05,VALID,915.261,VALID,0,VALID,95.3766,VALID,0,VALID,19.4703,VALID,134,VALID,0,
2013-04-11, 03:18:05,VALID,915.289,VALID,0,VALID,95.5519,VALID,0,VALID,19.4313,VALID,134,VALID,0,
2013-04-11, 03:19:05,VALID,915.311,VALID,0,VALID,95.6891,VALID,0,VALID,19.4313,VALID,134,VALID,0,
2013-04-11, 03:20:05,VALID,915.274,VALID,0,VALID,95.8721,VALID,0,VALID,19.4508,VALID,134,VALID,0,
2013-04-11, 03:21:05,VALID,915.318,VALID,0,VALID,95.9788,VALID,0,VALID,19.4508,VALID,134,VALID,0,
2013-04-11, 03:22:05,VALID,915.309,VALID,0,VALID,96.0017,VALID,0,VALID,19.4493,VALID,134,VALID,0,
2013-04-11, 03:23:05,VALID,915.333,VALID,0,VALID,96.0398,VALID,0,VALID,19.4688,VALID,134,VALID,0,
2013-04-11, 03:24:05,VALID,915.322,VALID,0,VALID,96.0398,VALID,0,VALID,19.4703,VALID,134,VALID,0,
2013-04-11, 03:25:05,VALID,915.347,VALID,0,VALID,95.7882,VALID,0,VALID,19.3728,VALID,134,VALID,0,
2013-04-11, 03:26:05,VALID,915.311,VALID,0,VALID,95.9636,VALID,0,VALID,19.3518,VALID,134,VALID,0,
2013-04-11, 03:27:05,VALID,915.326,VALID,0,VALID,96.0169,VALID,0,VALID,19.3923,VALID,134,VALID,0,
2013-04-11, 03:28:05,VALID,915.33,VALID,0,VALID,96.0398,VALID,0,VALID,19.3728,VALID,134,VALID,0,
2013-04-11, 03:29:05,VALID,915.326,VALID,0,VALID,96.0017,VALID,0,VALID,19.3323,VALID,134,VALID,0,
2013-04-11, 03:30:05,VALID,915.305,VALID,0,VALID,96.0017,VALID,0,VALID,19.3533,VALID,134,VALID,0,
2013-04-11, 03:31:05,VALID,915.306,VALID,0,VALID,96.0474,VALID,0,VALID,19.3728,VALID,134,VALID,0,
2013-04-11, 03:32:05,VALID,915.329,VALID,0,VALID,96.055,VALID,0,VALID,19.3323,VALID,134,VALID,0,
2013-04-11, 03:33:05,VALID,915.311,VALID,0,VALID,96.0169,VALID,0,VALID,19.3533,VALID,134,VALID,0,
2013-04-11, 03:34:05,VALID,915.29,VALID,0,VALID,95.9636,VALID,0,VALID,19.3143,VALID,134,VALID,0,
2013-04-11, 03:35:05,VALID,915.309,VALID,0,VALID,95.9636,VALID,0,VALID,19.2948,VALID,134,VALID,0,
2013-04-11, 03:36:05,VALID,915.336,VALID,0,VALID,95.8873,VALID,0,VALID,19.2558,VALID,134,VALID,0,
2013-04-11, 03:37:05,VALID,915.312,VALID,0,VALID,95.9483,VALID,0,VALID,19.2558,VALID,134,VALID,0,
2013-04-11, 03:38:05,VALID,915.293,VALID,0,VALID,96.0245,VALID,0,VALID,19.2558,VALID,134,VALID,0,
2013-04-11, 03:39:05,VALID,915.24,VALID,0,VALID,96.0017,VALID,0,VALID,19.2153,VALID,134,VALID,0,
2013-04-11, 03:40:05,VALID,915.276,VALID,0,VALID,95.9712,VALID,0,VALID,19.2363,VALID,134,VALID,0,
2013-04-11, 03:41:05,VALID,915.256,VALID,0,VALID,95.9178,VALID,0,VALID,19.2168,VALID,134,VALID,0,
2013-04-11, 03:42:05,VALID,915.216,VALID,0,VALID,95.9331,VALID,0,VALID,19.2139,VALID,134,VALID,0,
2013-04-11, 03:43:05,VALID,915.206,VALID,0,VALID,95.7958,VALID,0.107441,VALID,19.2153,VALID,134,VALID,0,
2013-04-11, 03:44:05,VALID,915.212,VALID,0,VALID,95.5595,VALID,0,VALID,19.1554,VALID,134,VALID,0,
2013-04-11, 03:45:05,VALID,915.217,VALID,0,VALID,95.247,VALID,0,VALID,19.0983,VALID,134,VALID,0,
2013-04-11, 03:46:05,VALID,915.212,VALID,0,VALID,95.4375,VALID,0,VALID,19.0579,VALID,134,VALID,0,
2013-04-11, 03:47:05,VALID,915.213,VALID,0,VALID,95.3918,VALID,0,VALID,19.0189,VALID,134,VALID,0,
2013-04-11, 03:48:05,VALID,915.254,VALID,0,VALID,95.1021,VALID,0,VALID,18.9619,VALID,134,VALID,0,
2013-04-11, 03:49:05,VALID,915.244,VALID,0,VALID,95.2775,VALID,0,VALID,18.9034,VALID,135,VALID,0,
2013-04-11, 03:50:04,VALID,915.249,VALID,0,VALID,95.5443,VALID,0.107441,VALID,18.9229,VALID,134,VALID,0,
2013-04-11, 03:51:04,VALID,915.239,VALID,0,VALID,95.7044,VALID,0.107441,VALID,18.9409,VALID,134,VALID,0,
2013-04-11, 03:52:04,VALID,915.283,VALID,0,VALID,95.6967,VALID,0,VALID,19.0218,VALID,108,VALID,0,
2013-04-11, 03:53:04,VALID,915.321,VALID,0,VALID,95.651,VALID,0,VALID,19.0579,VALID,108,VALID,0,
2013-04-11, 03:54:04,VALID,915.321,VALID,0,VALID,95.529,VALID,0.107441,VALID,19.1164,VALID,108,VALID,0,
2013-04-11, 03:55:04,VALID,915.302,VALID,0,VALID,95.3613,VALID,0,VALID,19.1763,VALID,109,VALID,0,
2013-04-11, 03:56:04,VALID,915.305,VALID,0,VALID,95.0716,VALID,0.107441,VALID,19.1763,VALID,119,VALID,0,
2013-04-11, 03:57:04,VALID,915.302,VALID,0,VALID,94.82,VALID,0,VALID,19.1373,VALID,115,VALID,0,
2013-04-11, 03:58:04,VALID,915.328,VALID,0,VALID,94.7286,VALID,0,VALID,19.1178,VALID,115,VALID,0,
2013-04-11, 03:59:04,VALID,915.328,VALID,0,VALID,94.7896,VALID,0,VALID,19.1193,VALID,115,VALID,0,